Date,TemperatureHighF,TemperatureAvgF,TemperatureLowF,DewpointHighF,DewpointAvgF,DewpointLowF,HumidityHigh,HumidityAvg,HumidityLow,PressureMaxIn,PressureMinIn,WindSpeedMaxMPH,WindSpeedAvgMPH,GustSpeedMaxMPH,PrecipitationSumIn
2013-1-1,43.3,34.9,28.5,32.6,24.1,17.1,95,66,36,30.15,30.00,6,0,13,0.18
2013-1-2,36.5,33.7,31.3,36.0,33.2,30.8,100,98,96,30.47,30.01,1,0,3,0.27
2013-1-3,41.5,33.2,27.8,37.3,28.7,25.6,100,85,54,30.58,30.47,2,0,5,0.00
2013-1-4,58.6,44.1,34.7,34.3,30.1,24.3,79,61,28,30.52,30.26,9,1,17,0.00
2013-1-5,62.1,49.8,41.3,34.6,30.0,26.0,64,49,26,30.26,30.07,9,2,21,0.00
2013-1-6,62.9,53.0,43.1,34.3,22.2,-3.2,64,37,7,30.20,29.98,16,4,35,0.00
2013-1-7,56.7,45.9,38.6,28.0,20.2,-99.9,60,38,17,30.20,30.01,11,0,27,0.00
2013-1-8,43.2,35.6,32.4,35.5,25.5,-99.9,94,75,60,30.30,30.19,4,0,11,0.00
2013-1-9,39.2,35.3,32.8,34.0,32.8,31.3,95,91,76,30.20,30.08,6,1,13,0.00
2013-1-10,40.9,35.6,30.6,33.6,31.1,27.7,93,84,68,30.08,29.79,3,0,6,0.00
2013-1-11,49.1,36.9,29.5,30.5,21.9,9.4,91,60,22,29.92,29.72,8,1,21,0.00
2013-1-12,39.2,23.1,27.2,29.1,-13.9,-99.9,91,45,42,29.99,29.89,5,1,14,0.00
2013-1-13,35.5,32.2,30.6,32.6,30.4,28.3,97,93,86,29.96,29.75,1,0,3,0.05
2013-1-14,36.2,26.8,30.1,33.4,9.5,-99.9,99,81,84,29.79,29.70,4,0,11,0.00
2013-1-15,34.3,30.8,30.7,32.1,25.5,-99.9,98,94,82,29.78,29.58,3,0,9,0.41
2013-1-16,31.3,29.2,26.9,29.9,22.6,14.9,97,76,58,29.58,29.42,11,3,21,0.18
2013-1-17,34.9,29.8,25.0,20.1,4.6,-99.9,76,38,26,29.61,29.43,14,6,27,0.00
2013-1-18,35.2,25.9,18.6,15.5,9.6,5.8,65,51,29,29.65,29.55,3,0,7,0.00
2013-1-19,34.1,28.7,25.4,28.0,15.8,-99.9,95,67,39,29.57,29.51,2,0,6,0.11
2013-1-20,33.7,28.8,29.0,33.4,20.6,-99.9,99,97,95,29.54,29.40,3,0,5,0.55
2013-1-21,38.6,31.8,32.1,38.6,24.1,-99.9,100,98,98,29.41,29.34,0,0,2,0.45
2013-1-22,40.8,22.7,30.0,38.2,-15.4,-99.9,100,58,64,29.70,29.31,6,0,12,0.21
2013-1-23,38.0,31.3,25.3,29.4,22.9,-99.9,96,74,51,29.78,29.68,3,0,6,0.01
2013-1-24,41.9,32.7,26.1,26.4,22.6,19.3,81,68,45,29.68,29.49,3,0,7,0.00
2013-1-25,40.2,30.6,25.3,27.9,19.7,-99.9,90,69,35,29.84,29.63,6,1,14,0.00
2013-1-26,36.0,20.8,25.4,25.0,-17.4,-99.9,88,47,53,29.97,29.76,4,0,10,0.00
2013-1-27,39.6,19.6,24.2,25.1,-30.2,-99.9,75,42,31,29.99,29.73,4,0,10,0.00
2013-1-28,34.6,31.4,27.5,30.9,27.1,21.7,96,85,65,30.25,29.83,3,0,10,0.08
2013-1-29,43.6,26.6,26.0,29.6,-5.9,-99.9,96,59,43,30.29,30.09,1,0,5,0.00
2013-1-30,48.9,33.7,30.1,34.5,18.0,-99.9,86,71,44,30.18,30.01,5,0,12,0.00
2013-1-31,54.7,41.0,32.9,30.3,20.8,5.7,89,50,15,30.22,30.01,5,0,10,0.00
2013-2-1,51.7,40.0,34.0,37.5,27.0,-99.9,92,63,30,30.01,29.48,7,1,17,0.00
2013-2-2,43.5,36.0,34.6,37.9,13.5,-99.9,100,62,22,29.48,29.17,10,2,27,0.27
2013-2-3,41.5,37.2,29.1,11.4,1.5,-7.0,46,23,15,30.06,29.43,13,5,34,0.00
2013-2-4,47.0,35.0,26.4,22.3,15.6,9.0,65,47,27,30.05,29.95,7,1,16,0.00
2013-2-5,41.2,35.8,30.1,33.4,27.4,20.2,94,72,58,30.02,29.52,8,0,14,0.16
2013-2-6,41.8,34.3,26.9,32.4,23.7,8.0,98,70,25,29.53,29.38,4,0,10,0.02
2013-2-7,41.2,33.4,27.2,28.4,11.4,-4.0,93,50,17,29.77,29.49,11,4,22,0.01
2013-2-8,37.8,29.9,22.2,6.7,-0.1,-99.9,49,30,18,29.87,29.75,10,2,19,0.00
2013-2-9,35.6,27.9,21.9,8.6,-1.7,-14.9,49,30,12,29.93,29.86,10,2,24,0.00
2013-2-10,33.2,23.5,16.5,9.9,-1.1,-99.9,57,37,20,29.98,29.87,4,1,11,0.00
2013-2-11,26.9,25.0,22.5,24.2,19.3,6.4,92,80,47,29.87,29.51,3,0,7,0.40
2013-2-12,33.4,28.8,26.7,30.1,22.4,-99.9,97,89,83,29.78,29.50,4,0,11,0.27
2013-2-13,41.3,23.9,21.0,25.2,-18.0,-99.9,93,42,14,30.00,29.76,8,1,20,0.00
2013-2-14,43.3,31.7,22.5,20.3,11.5,3.0,63,45,20,30.13,29.97,5,0,10,0.00
2013-2-15,42.9,33.9,29.1,25.0,18.8,9.4,73,56,26,30.06,29.94,7,1,14,0.00
2013-2-16,42.2,34.8,30.1,27.7,23.6,20.8,74,64,47,30.15,30.05,6,0,13,0.00
2013-2-17,36.9,33.2,30.7,32.8,28.5,23.3,95,83,69,30.13,30.04,2,0,6,0.10
2013-2-18,39.1,31.3,24.7,30.8,25.8,22.2,96,81,57,30.09,30.00,6,1,13,0.02
2013-2-19,41.1,31.1,22.5,26.0,21.4,17.5,85,69,41,30.09,29.87,6,1,12,0.00
2013-2-20,43.9,33.0,26.6,31.6,26.5,20.5,94,78,54,29.91,29.84,6,1,13,0.00
2013-2-21,34.1,29.7,25.8,31.7,27.8,23.8,96,92,86,29.87,29.76,4,0,12,0.45
2013-2-22,30.4,27.0,25.0,24.8,23.9,22.5,94,88,75,29.76,29.59,5,0,11,0.07
2013-2-23,31.9,27.2,20.5,26.1,22.3,17.2,93,83,63,29.65,29.49,3,0,10,0.05
2013-2-24,30.7,28.7,27.3,28.7,26.7,25.1,95,92,90,29.84,29.49,0,0,0,0.85
2013-2-25,32.1,28.4,25.6,30.3,24.1,-99.9,96,94,91,30.17,29.84,1,0,5,0.25
2013-2-26,40.6,30.3,20.6,27.6,23.3,17.9,94,77,41,30.20,30.12,2,0,5,0.00
2013-2-27,43.6,34.5,27.3,32.0,22.1,-99.9,89,65,33,30.23,30.16,6,0,16,0.00
2013-2-28,45.5,37.7,33.2,34.6,31.7,27.8,93,80,55,30.26,30.18,3,0,8,0.00
2013-3-1,48.2,37.2,29.1,33.9,30.6,27.1,93,79,52,30.19,30.01,7,1,16,0.00
2013-3-2,47.0,37.9,30.1,34.1,31.6,27.5,96,80,57,30.09,30.01,7,1,14,0.00
2013-3-3,51.3,37.9,29.0,34.3,27.9,-99.9,93,72,46,30.09,29.98,7,1,13,0.00
2013-3-4,51.4,39.9,31.0,29.8,25.7,22.8,75,59,35,30.19,30.06,10,1,17,0.00
2013-3-5,46.4,37.9,30.6,29.3,23.5,18.8,72,57,38,30.20,30.07,6,1,13,0.00
2013-3-6,38.0,35.8,32.8,36.9,34.3,28.4,100,94,68,30.08,29.76,0,0,2,0.83
2013-3-7,45.4,40.5,36.8,45.4,40.5,36.8,100,100,100,29.76,29.67,1,0,3,0.37
2013-3-8,45.7,42.3,39.5,45.7,42.3,39.5,100,100,100,29.68,29.60,2,0,4,0.46
2013-3-9,48.5,42.0,35.3,43.8,40.0,35.3,100,93,71,29.65,29.55,4,0,14,0.06
2013-3-10,52.3,44.0,35.6,41.6,38.6,35.3,100,83,53,29.55,29.43,8,2,17,0.00
2013-3-11,51.0,42.3,35.5,39.7,37.2,34.2,97,83,61,29.50,29.43,8,2,18,0.16
2013-3-12,44.2,39.5,37.0,40.6,37.1,-99.9,100,94,76,29.50,29.39,3,0,8,0.27
2013-3-13,46.1,39.2,34.0,38.5,34.5,32.3,97,84,65,29.42,29.33,10,1,18,0.00
2013-3-14,42.9,36.3,30.4,33.7,8.6,-99.9,96,38,19,29.45,29.28,11,6,28,0.00
2013-3-15,38.6,32.4,27.9,-1.8,-8.5,-12.5,27,16,13,29.95,29.44,12,6,26,0.00
2013-3-16,39.8,31.4,21.9,20.5,7.7,-3.5,58,38,18,30.09,29.95,9,2,17,0.00
2013-3-17,33.4,31.4,29.8,31.2,28.3,21.2,97,89,61,30.04,29.76,3,0,7,0.49
2013-3-18,34.0,31.6,30.1,33.2,30.9,29.3,99,97,96,29.76,29.24,4,0,10,1.74
2013-3-19,48.8,35.5,25.0,32.4,24.3,-99.9,98,72,27,29.69,29.37,5,0,12,0.00
2013-3-20,42.5,35.2,30.3,35.0,28.0,22.8,97,76,51,29.80,29.67,4,0,10,0.05
2013-3-21,51.1,41.5,29.5,29.4,14.8,5.6,97,40,16,29.91,29.79,15,4,30,0.01
2013-3-22,50.7,40.5,30.1,27.8,20.9,12.5,66,48,25,29.91,29.82,7,2,18,0.00
2013-3-23,48.9,40.9,33.7,37.8,31.8,26.9,96,71,51,29.89,29.80,8,1,12,0.01
2013-3-24,40.2,38.3,35.0,40.2,37.9,34.7,100,99,94,29.80,29.67,4,0,6,1.08
2013-3-25,44.2,33.5,33.1,38.9,25.2,-99.9,100,98,80,29.68,29.47,10,1,15,0.21
2013-3-26,33.7,31.8,29.8,33.7,30.8,27.6,100,96,83,29.68,29.50,5,1,13,0.03
2013-3-27,36.3,33.4,31.3,32.5,31.2,28.5,100,92,75,29.85,29.66,4,0,7,0.00
2013-3-28,38.2,34.3,31.9,33.5,32.0,30.4,99,91,75,29.90,29.82,3,0,8,0.56
2013-3-29,45.7,37.2,31.8,38.8,35.2,31.6,100,93,66,29.82,29.63,10,0,16,0.01
2013-3-30,39.5,38.4,37.2,39.2,38.0,36.4,100,98,96,29.67,29.38,3,0,8,0.48
2013-3-31,53.1,42.7,32.7,38.2,25.0,11.3,100,59,21,29.56,29.37,11,3,22,0.00
2013-4-1,43.8,37.1,31.5,33.8,29.1,20.4,86,73,55,29.68,29.56,12,1,17,0.00
2013-4-2,52.5,41.9,34.0,37.9,33.0,-99.9,94,75,46,29.63,29.48,12,2,16,0.00
2013-4-3,52.0,32.4,38.2,37.6,-5.1,-99.9,95,48,49,29.70,29.54,9,2,18,0.00
2013-4-4,48.9,41.8,36.9,39.6,35.6,32.5,97,79,60,29.73,29.66,9,1,19,0.09
2013-4-5,45.5,41.0,38.8,43.6,40.3,38.3,100,97,90,29.68,29.48,6,1,16,0.38
2013-4-6,51.9,44.7,36.5,42.2,39.9,36.1,100,85,64,29.85,29.67,11,2,24,0.00
2013-4-7,48.9,44.4,39.8,42.9,39.1,34.5,98,82,67,29.85,29.78,12,1,12,0.25
2013-4-8,42.9,37.9,35.2,36.2,34.3,30.1,98,87,67,29.85,29.71,5,1,13,0.19
2013-4-9,45.1,39.1,36.0,39.3,36.5,32.2,100,91,65,29.81,29.74,9,1,17,0.03
2013-4-10,56.0,45.0,33.5,39.1,36.2,31.0,97,74,44,29.90,29.79,11,2,19,0.01
2013-4-11,50.5,45.7,40.8,44.9,38.9,31.5,98,77,67,29.96,29.83,8,0,8,0.11
2013-4-12,55.7,48.1,44.9,49.3,45.1,42.4,100,90,64,29.88,29.73,10,1,19,1.00
2013-4-13,62.4,50.2,38.0,45.3,37.0,24.8,100,67,26,30.22,29.87,10,2,18,0.07
2013-4-14,65.2,53.5,42.6,42.9,37.3,31.9,72,56,35,30.35,30.22,9,2,17,0.00
2013-4-15,67.1,56.0,44.8,46.9,42.8,38.7,83,63,43,30.27,30.08,9,2,21,0.00
2013-4-16,66.8,58.2,53.3,48.9,47.0,45.4,81,67,49,30.19,30.08,8,2,17,0.00
2013-4-17,68.8,59.2,49.1,48.2,46.1,42.7,83,63,46,30.23,30.14,9,2,19,0.00
2013-4-18,71.1,60.1,48.9,49.4,46.7,43.3,84,63,45,30.15,29.99,9,2,18,0.00
2013-4-19,69.8,57.5,44.8,54.6,48.2,42.8,99,73,47,30.00,29.76,21,3,36,3.88
2013-4-20,45.2,42.6,40.2,45.1,41.6,-99.9,100,99,95,30.06,29.79,10,1,22,3.98
2013-4-21,50.4,46.0,43.6,50.4,45.2,-99.9,100,100,94,30.07,29.92,4,0,8,0.35
2013-4-22,52.2,46.5,42.9,47.0,44.6,42.3,100,94,73,30.00,29.86,8,1,19,0.11
2013-4-23,58.6,50.2,45.2,49.1,45.2,40.5,100,85,56,30.30,30.00,8,1,13,0.06
2013-4-24,64.2,52.7,42.3,47.1,43.5,-99.9,100,75,48,30.39,30.30,10,2,17,0.00
2013-4-25,82.2,56.2,43.8,49.8,42.5,37.4,83,62,30,30.35,30.17,11,2,20,0.03
2013-4-26,57.8,54.0,50.5,54.8,48.9,-99.9,99,85,70,30.17,29.84,3,0,11,0.12
2013-4-27,52.8,50.2,49.2,52.0,48.7,-99.9,100,97,79,29.84,29.60,7,1,14,2.58
2013-4-28,59.8,51.6,48.3,53.1,47.8,-99.9,100,92,64,29.96,29.66,8,1,17,1.84
2013-4-29,55.0,52.5,50.5,55.0,51.5,-99.9,100,99,91,30.12,29.92,8,1,16,1.45
2013-4-30,58.4,53.9,51.1,58.1,53.8,51.1,100,100,95,30.12,30.04,3,0,6,0.34
2013-5-1,68.4,57.6,51.6,57.7,53.8,48.6,100,89,50,30.12,29.99,8,1,20,0.11
2013-5-2,67.1,58.2,49.8,58.9,54.0,49.3,100,88,60,30.01,29.84,8,2,17,0.87
2013-5-3,65.5,54.2,45.2,51.3,46.7,37.0,100,78,49,29.92,29.85,9,2,21,0.01
2013-5-4,66.0,54.6,44.8,49.8,42.9,-99.9,84,67,44,30.00,29.90,7,1,17,0.00
2013-5-5,66.9,54.3,46.4,53.9,42.4,-99.9,100,71,37,30.06,29.97,8,1,17,0.28
2013-5-6,56.7,53.6,49.4,56.0,52.6,49.4,100,97,85,30.01,29.93,1,0,5,0.23
2013-5-7,63.2,52.3,46.8,52.6,47.6,-99.9,100,89,60,29.96,29.88,11,1,19,1.08
2013-5-8,63.9,53.8,45.7,54.1,48.3,-99.9,100,85,55,29.97,29.90,9,1,14,0.16
2013-5-9,70.6,59.8,48.5,51.1,48.7,44.1,96,70,46,30.00,29.87,10,2,19,0.00
2013-5-10,61.2,55.6,53.2,55.0,52.6,47.7,100,90,64,29.87,29.80,7,1,14,0.85
2013-5-11,67.3,57.9,49.6,52.8,45.1,25.8,100,68,25,29.84,29.71,11,3,19,0.00
2013-5-12,66.3,54.8,42.9,36.9,30.2,18.3,75,43,23,29.92,29.78,10,3,22,0.00
2013-5-13,67.4,54.1,41.5,42.2,32.5,18.6,71,45,26,30.01,29.89,8,2,17,0.00
2013-5-14,64.5,55.5,45.1,47.1,41.1,-99.9,84,61,45,29.94,29.76,7,2,20,0.10
2013-5-15,62.9,53.5,48.2,52.3,47.4,40.2,100,82,49,29.79,29.66,13,2,20,0.59
2013-5-16,51.1,48.9,47.6,51.1,48.8,47.5,100,100,97,29.67,29.42,4,0,7,3.03
2013-5-17,53.8,49.1,45.7,52.1,48.5,43.1,100,98,89,29.76,29.43,6,0,16,2.19
2013-5-18,58.6,49.8,43.3,48.5,43.9,38.1,100,83,47,29.95,29.76,8,1,16,0.42
2013-5-19,55.7,49.4,45.1,49.8,45.5,38.7,100,88,60,29.91,29.71,8,1,19,2.43
2013-5-20,50.2,46.2,43.3,47.8,44.9,41.5,100,96,79,30.00,29.90,8,0,17,0.56
2013-5-21,54.8,46.5,42.8,49.1,44.9,40.6,100,95,59,30.00,29.84,10,0,17,0.31
2013-5-22,65.2,51.0,38.0,45.0,38.7,30.5,100,69,31,29.85,29.60,8,2,18,0.01
2013-5-23,66.3,54.1,43.5,46.0,37.4,26.7,98,57,29,29.63,29.46,11,2,27,0.26
2013-5-24,46.8,40.5,36.3,45.3,36.0,30.9,98,84,74,29.77,29.45,12,4,27,0.77
2013-5-25,48.6,42.0,34.7,40.4,36.2,31.1,96,81,55,29.78,29.67,8,2,18,0.00
2013-5-26,60.7,48.9,36.0,35.9,27.8,16.9,95,51,20,29.83,29.77,9,2,18,0.00
2013-5-27,63.5,52.1,39.2,45.9,38.4,32.1,80,61,44,29.82,29.76,10,3,20,0.00
2013-5-28,56.6,52.1,48.2,49.7,46.1,43.9,95,80,65,29.80,29.59,6,1,14,0.08
2013-5-29,56.6,46.6,41.8,48.6,43.0,-99.9,100,90,62,29.65,29.47,8,1,16,3.65
2013-5-30,58.7,48.3,37.8,42.8,38.7,27.5,100,73,31,29.64,29.54,9,2,19,0.27
2013-5-31,62.9,53.7,43.2,40.0,35.6,27.9,81,54,31,29.59,29.48,8,2,17,0.00
2013-6-1,69.8,59.7,48.0,51.2,38.6,29.0,76,49,23,29.68,29.50,19,4,29,0.00
2013-6-2,71.6,65.0,58.0,37.0,33.8,29.6,44,31,27,29.84,29.65,13,6,24,0.00
2013-6-3,65.5,57.5,49.9,48.9,43.4,32.2,82,60,44,29.94,29.84,7,2,17,0.00
2013-6-4,68.4,59.3,49.9,49.7,47.0,43.8,85,66,46,29.94,29.84,6,1,11,0.00
2013-6-5,66.8,53.6,53.2,57.0,41.0,-99.9,100,80,62,29.99,29.90,11,1,19,0.49
2013-6-6,69.9,58.4,54.1,56.1,50.7,-99.9,100,83,51,30.06,29.94,10,2,19,0.11
2013-6-7,72.1,57.4,50.1,56.6,45.2,-99.9,100,77,53,30.06,29.95,8,1,17,0.00
2013-6-8,70.3,60.0,52.8,58.6,52.6,-99.9,95,79,55,29.99,29.85,8,1,14,0.00
2013-6-9,60.2,56.7,50.7,58.4,54.0,50.1,100,91,77,29.86,29.72,8,0,14,1.96
2013-6-10,66.0,56.5,48.9,53.1,50.7,47.8,100,83,59,29.83,29.71,9,2,18,0.11
2013-6-11,74.9,60.5,48.3,53.9,48.2,41.3,95,67,41,29.93,29.80,11,2,19,0.00
2013-6-12,76.8,63.3,49.6,51.4,45.2,36.9,82,55,28,30.03,29.93,7,1,14,0.00
2013-6-13,75.8,65.6,54.5,56.0,51.1,47.0,84,61,43,30.07,29.94,10,2,18,0.00
2013-6-14,76.5,67.7,57.6,57.8,54.8,52.2,85,65,46,29.98,29.89,8,2,17,0.00
2013-6-15,79.2,69.5,59.2,61.1,56.3,51.9,81,64,46,29.93,29.87,8,2,17,0.00
2013-6-16,79.6,69.5,59.9,63.7,59.8,55.1,87,72,57,29.96,29.90,8,2,18,0.00
2013-6-17,82.2,71.6,60.9,65.4,61.4,56.7,91,72,56,29.98,29.90,8,2,17,0.00
2013-6-18,85.9,74.0,63.1,66.4,61.7,58.8,89,68,43,29.95,29.88,7,2,16,0.00
2013-6-19,83.6,74.9,66.6,66.4,62.8,57.8,87,67,50,29.94,29.86,9,2,14,0.00
2013-6-20,82.4,70.8,65.2,67.7,62.3,56.3,87,75,44,29.90,29.83,9,1,16,0.09
2013-6-21,74.4,66.4,58.6,62.0,55.3,50.0,92,69,44,29.93,29.85,9,2,20,0.00
2013-6-22,76.3,64.8,56.6,57.7,53.8,50.5,83,68,44,29.92,29.87,7,1,16,0.00
2013-6-23,73.3,63.3,54.8,59.3,55.5,52.2,100,78,54,29.91,29.77,13,2,28,1.30
2013-6-24,70.4,61.2,51.4,56.1,39.3,29.7,98,50,26,29.94,29.75,16,5,28,0.23
2013-6-25,72.5,61.6,49.1,40.0,35.0,30.5,69,39,24,30.00,29.90,9,3,21,0.00
2013-6-26,71.8,61.1,51.0,44.9,36.7,25.6,68,43,19,30.12,30.00,7,2,17,0.00
2013-6-27,59.6,53.6,49.6,50.8,45.6,38.4,92,75,58,30.13,30.01,9,1,16,0.05
2013-6-28,59.8,53.5,46.2,48.5,46.2,42.8,94,77,62,30.09,30.02,10,2,21,0.00
2013-6-29,67.1,56.0,46.1,47.9,44.5,37.1,92,68,38,30.10,29.97,7,1,12,0.00
2013-6-30,75.3,61.9,48.9,49.7,44.8,39.7,80,57,36,30.06,29.98,7,2,17,0.00
2013-7-1,75.8,65.4,54.4,53.2,49.7,47.0,81,59,38,30.04,29.98,7,2,16,0.00
2013-7-2,77.4,67.3,55.9,55.6,52.4,50.1,85,61,41,30.02,29.92,8,2,17,0.00
2013-7-3,70.9,64.9,57.3,56.9,52.7,48.0,87,65,52,29.94,29.87,4,0,10,0.00
2013-7-4,77.4,63.9,53.1,62.9,54.8,49.6,91,74,47,30.07,29.92,12,2,19,0.09
2013-7-5,81.6,70.4,59.0,60.1,57.3,55.0,90,66,42,30.14,30.05,7,2,14,0.00
2013-7-6,80.7,72.3,65.2,60.1,58.0,55.2,79,62,45,30.12,30.04,7,2,14,0.00
2013-7-7,79.8,57.8,60.7,61.5,34.1,-99.9,99,64,46,30.20,30.08,18,1,33,0.45
2013-7-8,76.1,66.7,60.4,64.3,61.1,57.8,100,84,54,30.22,30.10,7,1,14,0.28
2013-7-9,78.3,67.3,57.8,63.8,59.4,54.6,98,77,46,30.14,29.94,8,1,20,0.09
2013-7-10,79.2,65.2,57.5,65.1,60.6,56.8,100,87,52,30.00,29.82,11,1,24,0.49
2013-7-11,79.9,66.3,56.9,63.1,54.0,-99.9,100,75,51,29.87,29.74,8,2,17,0.00
2013-7-12,76.3,68.8,61.3,61.7,59.6,54.9,90,74,55,29.93,29.80,8,2,17,0.00
2013-7-13,77.6,69.0,63.1,63.8,58.3,-99.9,98,75,58,29.95,29.86,11,2,18,0.02
2013-7-14,77.6,68.6,59.5,61.5,56.7,53.7,86,67,49,30.00,29.93,9,2,17,0.00
2013-7-15,80.1,67.2,58.6,61.4,52.7,-99.9,90,67,49,30.01,29.92,9,2,14,0.00
2013-7-16,79.4,70.5,61.3,61.9,59.8,57.1,90,70,50,30.07,29.98,8,2,16,0.00
2013-7-17,79.4,66.7,64.5,66.1,50.9,-99.9,91,70,49,30.08,29.98,8,1,19,0.00
2013-7-18,78.5,61.5,62.6,62.3,43.0,-99.9,84,69,47,30.04,29.97,7,2,16,0.00
2013-7-19,74.4,62.4,58.3,63.7,47.8,-99.9,89,73,56,30.04,29.93,5,0,12,0.08
2013-7-20,79.0,44.9,59.0,63.4,4.5,-99.9,89,52,47,29.99,29.91,8,1,16,0.01
2013-7-21,81.4,49.4,60.2,60.3,3.9,-99.9,82,39,44,30.02,29.90,7,2,16,0.00
2013-7-22,83.8,69.2,61.3,63.4,53.6,-99.9,97,65,48,30.00,29.87,15,2,28,0.45
2013-7-23,84.0,64.5,56.5,62.1,43.1,-99.9,99,68,36,30.01,29.77,7,2,19,0.17
2013-7-24,82.6,52.2,60.1,63.1,11.0,-99.9,88,43,41,29.92,29.80,15,1,31,0.00
2013-7-25,84.3,73.0,62.1,64.9,61.9,59.3,95,71,47,29.94,29.88,7,1,17,0.00
2013-7-26,85.5,75.1,65.0,66.5,63.7,61.0,91,69,47,29.95,29.84,6,1,14,0.00
2013-7-27,88.4,75.4,65.6,66.6,60.4,-99.9,90,65,39,29.88,29.80,7,2,17,0.00
2013-7-28,88.4,77.4,68.9,66.0,58.1,-99.9,83,56,32,29.88,29.82,8,2,18,0.00
2013-7-29,75.3,61.7,54.4,64.6,49.3,-99.9,99,76,44,29.98,29.77,19,3,35,1.91
2013-7-30,79.4,52.6,52.8,52.4,22.7,-99.9,90,54,28,30.06,29.96,6,2,16,0.00
2013-7-31,80.9,67.9,56.7,58.0,51.8,-99.9,78,59,40,30.07,29.96,7,2,16,0.00
2013-8-1,82.2,66.5,60.5,61.2,46.5,-99.9,91,64,46,30.06,29.92,7,2,14,0.00
2013-8-2,84.7,68.1,61.8,64.0,49.3,-99.9,89,63,37,30.03,29.96,8,1,17,0.00
2013-8-3,86.3,73.6,62.3,64.5,57.1,-99.9,78,59,40,30.05,29.92,7,1,17,0.00
2013-8-4,86.1,69.5,65.2,63.8,47.9,-99.9,79,60,42,30.01,29.92,9,1,18,0.00
2013-8-5,85.9,75.2,65.6,64.9,60.3,-99.9,81,63,45,29.98,29.88,7,2,17,0.00
2013-8-6,87.2,74.4,65.0,64.5,57.8,-99.9,83,60,43,29.94,29.83,8,1,14,0.00
2013-8-7,82.6,72.9,67.8,63.2,53.3,-99.9,75,55,32,29.86,29.77,8,2,20,0.00
2013-8-8,76.0,67.1,62.6,64.4,58.4,-99.9,100,80,51,29.97,29.78,10,2,17,0.36
2013-8-9,78.8,59.7,57.8,62.9,40.1,-99.9,100,71,39,30.00,29.81,11,2,20,0.02
2013-8-10,80.7,65.2,55.1,51.1,34.6,-99.9,69,41,26,29.95,29.85,11,3,22,0.00
2013-8-11,78.6,59.8,57.5,56.7,32.3,-99.9,78,55,43,30.01,29.85,9,1,12,0.00
2013-8-12,79.0,42.7,58.6,58.3,-1.9,-99.9,90,54,43,29.98,29.84,7,2,14,0.00
2013-8-13,82.8,50.7,60.2,59.6,6.4,-99.9,88,38,41,29.93,29.75,8,2,18,0.00
2013-8-14,69.3,63.6,60.2,61.9,57.8,-99.9,98,84,68,30.04,29.82,10,2,20,0.00
2013-8-15,74.7,64.2,59.5,58.6,52.3,-99.9,94,72,48,30.11,30.03,8,2,14,0.00
2013-8-16,76.3,43.4,59.2,55.6,-3.2,-99.9,81,42,47,30.09,29.93,9,2,17,0.00
2013-8-17,80.1,67.2,57.2,57.9,52.0,-99.9,87,63,38,30.04,29.92,8,2,18,0.00
2013-8-18,81.6,69.5,59.0,58.0,53.8,-99.9,86,61,40,30.00,29.92,8,2,17,0.00
2013-8-19,79.0,66.1,58.1,61.8,56.7,54.1,100,74,47,29.95,29.87,11,1,18,0.30
2013-8-20,78.3,63.7,51.1,58.3,49.2,37.0,100,65,24,30.10,29.93,8,2,18,0.01
2013-8-21,76.8,64.1,52.0,54.4,48.9,43.5,92,62,34,30.13,30.01,7,2,16,0.00
2013-8-22,76.3,65.9,54.5,55.4,51.8,49.0,88,63,43,30.05,29.92,8,2,17,0.00
2013-8-23,77.6,65.9,55.9,58.9,55.3,53.3,100,71,47,29.98,29.84,9,2,22,1.92
2013-8-24,75.1,62.0,54.2,61.1,57.7,54.2,100,88,55,29.98,29.76,15,1,28,0.52
2013-8-25,71.6,58.6,53.8,58.7,55.7,46.9,100,91,49,29.78,29.67,7,1,16,0.20
2013-8-26,65.6,58.4,53.6,57.6,54.7,50.1,99,88,60,29.84,29.71,8,1,17,0.19
2013-8-27,67.1,56.6,51.4,57.3,53.2,48.8,100,90,53,29.88,29.78,11,1,20,0.72
2013-8-28,73.3,60.9,48.9,57.6,53.0,48.6,100,78,50,29.96,29.81,8,1,17,0.01
2013-8-29,71.5,63.0,57.0,56.0,53.4,51.2,87,72,52,30.08,29.96,7,2,16,0.00
2013-8-30,71.6,63.4,55.6,56.5,53.4,48.8,88,71,55,30.09,30.00,8,2,14,0.00
2013-8-31,73.3,63.9,55.3,58.1,55.7,53.4,96,76,56,30.08,29.99,8,2,18,0.00
2013-9-1,75.3,54.2,57.2,59.4,31.7,-99.9,95,70,53,30.07,29.98,8,1,17,0.00
2013-9-2,73.9,58.4,55.6,54.8,38.3,-99.9,93,64,41,30.17,30.06,8,1,16,0.00
2013-9-3,77.6,65.1,52.8,57.3,50.9,44.9,85,63,35,30.19,30.11,7,1,15,0.00
2013-9-4,76.5,61.0,56.7,60.7,43.8,-99.9,90,68,54,30.21,30.06,8,2,17,0.00
2013-9-5,76.5,63.3,58.1,61.4,50.2,-99.9,97,77,57,30.09,29.89,7,2,17,0.00
2013-9-6,77.2,60.4,58.4,61.4,42.4,-99.9,95,70,50,29.92,29.84,7,1,14,0.00
2013-9-7,78.3,65.4,58.1,60.7,51.7,-99.9,94,71,47,30.00,29.92,7,1,16,0.00
2013-9-8,70.3,66.9,60.1,60.2,57.9,56.1,96,73,63,30.03,29.93,10,5,21,0.14
2013-9-9,75.3,63.6,55.0,60.9,53.0,42.2,100,73,32,29.95,29.87,9,1,21,0.55
2013-9-10,67.1,58.7,53.8,58.5,53.0,47.5,100,82,63,29.95,29.80,6,1,12,1.53
2013-9-11,66.0,55.6,46.0,54.5,47.3,40.6,100,77,41,29.91,29.80,5,1,12,0.00
2013-9-12,67.3,55.2,46.1,51.1,46.0,37.4,97,74,39,29.97,29.86,7,1,14,0.00
2013-9-13,69.3,56.1,44.5,43.1,37.7,31.6,78,54,25,30.08,29.96,7,1,16,0.00
2013-9-14,67.3,57.1,46.1,51.5,42.8,33.5,80,60,37,30.07,29.95,7,1,14,0.00
2013-9-15,58.7,55.6,49.6,56.4,53.3,49.3,100,92,77,29.96,29.80,3,0,6,0.76
2013-9-16,63.9,54.3,46.2,57.3,51.9,46.2,100,93,68,29.81,29.52,6,0,13,0.05
2013-9-17,62.6,54.2,44.2,53.9,35.0,17.7,100,58,20,29.73,29.44,12,2,26,0.06
2013-9-18,63.2,53.6,44.3,48.4,39.9,33.2,82,61,39,29.72,29.61,6,1,12,0.00
2013-9-19,72.0,57.9,46.0,48.5,40.5,27.0,93,60,19,29.85,29.63,9,2,19,0.00
2013-9-20,66.6,57.9,50.8,54.2,50.4,45.2,92,77,60,30.03,29.85,7,2,16,0.00
2013-9-21,67.1,57.6,48.0,55.7,51.8,46.3,97,82,62,30.21,30.02,8,2,17,0.00
2013-9-22,67.1,59.3,51.9,55.7,53.0,50.3,97,81,61,30.28,30.17,7,1,18,0.00
2013-9-23,70.8,59.3,48.9,55.4,51.4,47.5,97,77,51,30.19,30.02,6,1,13,0.00
2013-9-24,70.6,59.4,49.2,57.1,51.3,46.0,92,76,50,30.02,29.90,8,2,17,0.00
2013-9-25,65.2,58.3,51.7,56.1,53.5,50.2,97,84,70,29.93,29.89,9,1,16,0.00
2013-9-26,69.4,61.4,53.5,58.0,55.8,52.4,97,83,64,29.93,29.86,8,1,14,0.00
2013-9-27,69.8,62.6,54.4,59.4,57.3,53.6,99,84,65,29.94,29.85,8,2,21,0.00
2013-9-28,71.3,63.6,59.9,59.0,57.4,54.2,93,81,57,29.87,29.80,7,1,13,0.00
2013-9-29,61.5,58.3,54.8,59.2,57.2,54.6,100,96,83,29.81,29.61,3,0,8,0.75
2013-9-30,55.3,53.9,52.5,55.3,53.6,52.5,100,99,93,29.70,29.56,5,1,12,0.10
2013-10-1,56.2,53.7,52.0,52.9,51.7,49.8,100,93,81,29.82,29.70,5,1,12,0.00
2013-10-2,58.9,55.2,52.6,52.8,51.2,48.1,97,87,74,30.13,29.82,7,1,14,0.00
2013-10-3,55.3,51.2,50.2,51.8,48.0,46.4,93,89,83,30.28,30.13,3,0,10,0.05
2013-10-4,51.4,48.9,47.4,47.9,46.6,45.2,97,92,85,30.31,30.24,5,1,12,0.04
2013-10-5,55.4,50.0,46.1,51.7,48.9,45.6,100,96,82,30.24,30.09,6,0,14,0.38
2013-10-6,57.8,53.3,50.2,54.6,51.6,49.8,100,94,79,30.14,30.09,3,0,10,0.04
2013-10-7,59.6,54.2,51.7,55.5,53.4,51.7,100,97,82,30.17,30.11,6,0,16,0.62
2013-10-8,58.3,54.2,50.7,54.0,52.9,50.2,100,95,82,30.18,30.12,4,0,11,0.07
2013-10-9,58.3,54.2,51.6,53.3,52.4,51.2,100,94,81,30.13,29.95,5,0,11,0.01
2013-10-10,54.2,48.3,36.3,53.3,39.6,-99.9,100,89,85,29.95,29.48,25,3,44,3.62
2013-10-11,52.8,41.6,34.9,38.7,35.0,30.3,96,79,42,30.01,29.61,17,4,34,1.32
2013-10-12,48.6,42.5,38.8,44.0,39.7,36.2,98,90,65,30.10,29.91,10,1,21,0.74
2013-10-13,48.6,45.2,43.1,45.9,43.2,37.9,99,93,69,30.21,30.09,8,0,17,0.07
2013-10-14,53.5,46.5,44.9,49.1,42.4,-99.9,100,95,81,30.20,30.10,3,0,7,0.02
2013-10-15,55.6,44.2,40.3,47.6,36.0,-99.9,100,89,73,30.11,29.84,5,0,12,0.00
2013-10-16,65.5,50.4,40.6,45.1,33.0,-99.9,99,64,18,29.89,29.74,9,2,20,0.01
2013-10-17,67.1,51.7,42.6,43.8,38.2,30.4,81,62,26,30.02,29.86,4,1,12,0.00
2013-10-18,62.0,49.5,39.9,47.2,38.3,30.8,85,68,32,30.08,29.99,6,1,13,0.00
2013-10-19,58.3,43.1,42.1,49.5,25.0,-99.9,95,75,69,30.25,30.07,6,0,13,0.00
2013-10-20,52.5,45.0,49.9,50.8,30.5,-99.9,100,85,89,30.25,30.16,4,0,11,0.13
2013-10-21,57.0,41.5,44.6,53.9,19.3,-99.9,100,84,82,30.23,30.15,2,0,7,0.01
2013-10-22,56.3,40.1,52.6,56.3,12.5,-99.9,100,79,100,30.17,30.06,3,0,8,0.06
2013-10-23,62.3,56.2,53.5,57.3,48.2,-99.9,100,88,66,30.07,29.93,12,4,26,3.59
2013-10-24,56.2,51.7,51.1,56.2,47.6,-99.9,100,97,100,30.19,29.99,3,0,5,0.65
2013-10-25,59.8,53.3,47.9,56.3,51.6,47.9,100,94,79,30.20,30.14,1,0,6,0.00
2013-10-26,63.4,54.5,47.9,54.5,50.5,47.9,100,88,62,30.21,30.13,4,0,10,0.00
2013-10-27,59.8,53.2,52.5,57.3,48.2,-99.9,100,92,82,30.18,30.01,8,0,19,0.12
2013-10-28,60.4,55.6,52.3,57.0,52.8,49.2,100,91,75,30.05,29.92,3,0,12,0.03
2013-10-29,60.5,55.4,52.0,58.0,54.4,50.7,100,96,85,29.95,29.84,6,1,12,1.39
2013-10-30,54.1,51.6,49.4,52.5,51.1,49.2,100,98,91,30.15,29.92,8,0,17,1.24
2013-10-31,53.9,50.8,49.5,53.1,50.2,49.1,100,98,86,30.25,30.15,4,0,8,1.07
2013-11-1,56.9,49.7,42.3,51.0,46.4,42.0,100,89,71,30.21,30.06,5,0,12,0.05
2013-11-2,54.7,50.9,49.1,50.4,48.9,46.9,98,93,85,30.06,29.91,3,0,8,0.01
2013-11-3,59.2,50.4,41.3,51.1,46.6,32.2,99,87,65,29.91,29.65,6,0,16,0.54
2013-11-4,48.3,44.0,39.2,45.4,40.2,30.2,99,87,69,29.76,29.42,2,0,10,0.24
2013-11-5,54.8,45.2,36.9,45.7,39.3,-99.9,100,84,45,29.51,29.40,5,0,12,0.01
2013-11-6,53.3,45.9,43.5,46.5,39.8,-99.9,91,83,67,29.89,29.50,4,0,8,0.01
2013-11-7,58.1,45.9,41.8,48.8,31.2,-99.9,91,74,49,30.01,29.87,7,1,14,0.00
2013-11-8,52.9,38.8,48.8,49.9,14.5,-99.9,100,83,86,30.01,29.88,1,0,7,0.06
2013-11-9,55.7,46.8,42.3,52.8,38.3,-99.9,100,91,80,29.88,29.72,5,0,13,0.31
2013-11-10,47.9,38.3,38.6,42.3,21.8,-99.9,96,75,27,29.78,29.56,9,1,33,0.13
2013-11-11,54.4,45.1,37.3,23.4,8.9,-99.9,57,27,15,30.13,29.71,16,6,35,0.00
2013-11-12,55.4,42.5,35.3,32.0,23.4,-99.9,69,52,29,30.21,30.09,3,0,7,0.00
2013-11-13,60.1,47.3,37.9,40.1,34.2,29.1,77,62,35,30.15,30.07,4,0,12,0.00
2013-11-14,47.1,44.5,40.3,44.1,40.2,-99.9,99,88,77,30.14,29.81,8,0,16,0.81
2013-11-15,41.6,37.5,32.8,41.6,36.7,31.0,100,97,88,30.26,29.79,9,0,19,1.60
2013-11-16,52.0,44.2,37.2,47.1,41.4,37.2,100,91,70,30.27,30.18,6,0,14,0.00
2013-11-17,49.5,44.7,42.9,43.8,42.1,40.4,100,91,71,30.22,30.12,5,0,12,0.04
2013-11-18,44.2,42.7,42.3,44.2,41.2,-99.9,100,100,95,30.12,29.85,0,0,2,0.32
2013-11-19,45.5,42.4,42.3,45.5,39.6,-99.9,100,99,100,29.85,29.52,6,0,14,0.97
2013-11-20,46.5,42.9,39.8,44.5,41.5,34.4,100,95,81,29.55,29.50,6,1,11,0.16
2013-11-21,40.1,35.9,32.4,35.4,31.2,-99.9,98,88,73,29.54,29.32,7,0,13,0.97
2013-11-22,36.5,33.0,30.9,34.3,31.9,29.2,99,96,90,29.63,29.39,1,0,3,0.54
2013-11-23,40.2,33.1,28.8,32.6,28.0,-99.9,95,86,62,29.63,29.51,2,0,5,0.00
2013-11-24,47.3,37.7,31.2,34.9,30.6,19.3,93,77,41,29.84,29.63,8,0,17,0.00
2013-11-25,44.3,39.0,32.5,19.8,3.9,-99.9,39,24,15,30.09,29.80,14,6,27,0.00
2013-11-26,39.6,28.2,24.5,13.9,-3.6,-99.9,57,35,17,30.25,30.08,12,2,20,0.00
2013-11-27,35.0,27.9,21.4,13.8,5.8,-3.0,57,40,25,30.41,30.21,10,1,21,0.00
2013-11-28,37.0,29.2,22.7,21.6,14.4,6.6,68,54,30,30.45,30.36,3,0,7,0.00
2013-11-29,43.6,27.4,25.7,23.1,6.0,-99.9,73,57,30,30.36,30.01,4,0,10,0.00
2013-11-30,35.9,30.6,28.5,28.8,22.2,-99.9,93,78,69,30.21,29.92,4,0,8,0.00
2013-12-1,42.1,31.2,25.3,27.3,21.5,-99.9,94,71,42,30.25,30.11,4,0,10,0.00
2013-12-2,45.8,33.7,27.3,22.8,17.9,10.5,70,55,25,30.45,30.16,2,0,8,0.00
2013-12-3,46.5,34.3,27.2,24.7,19.8,14.9,69,57,28,30.47,30.32,4,0,8,0.00
2013-12-4,53.2,37.7,30.4,25.3,19.0,14.4,57,48,24,30.34,30.14,1,0,3,0.00
2013-12-5,53.6,40.7,32.8,29.3,24.0,21.5,66,53,31,30.19,30.00,3,0,10,0.00
2013-12-6,53.9,44.7,31.2,23.4,13.6,1.0,70,34,14,30.00,29.82,20,8,43,0.00
2013-12-7,51.9,46.8,33.5,20.8,9.7,-1.9,56,24,12,30.25,29.94,14,5,32,0.00
2013-12-8,45.8,34.5,29.7,26.6,16.5,-99.9,63,52,29,30.42,30.25,3,0,8,0.00
2013-12-9,43.9,35.7,29.5,26.4,20.8,16.5,64,55,39,30.43,30.37,3,0,5,0.00
2013-12-10,53.8,41.2,34.7,26.8,20.7,16.6,59,45,25,30.60,30.40,3,0,7,0.00
2013-12-11,48.0,37.3,32.2,30.6,24.4,-99.9,76,62,40,30.60,30.49,3,0,8,0.00
2013-12-12,46.2,36.6,31.0,29.5,26.4,24.3,77,67,48,30.52,30.37,1,0,4,0.00
2013-12-13,49.5,38.4,32.4,30.5,25.7,23.5,75,62,37,30.37,30.22,2,0,5,0.00
2013-12-14,48.8,38.6,32.5,27.5,22.9,8.3,67,55,26,30.36,30.25,6,0,20,0.00
2013-12-15,46.8,37.1,31.0,19.4,14.2,6.8,53,40,21,30.57,30.33,8,0,19,0.00
2013-12-16,51.1,38.6,31.9,24.5,19.0,15.8,56,46,27,30.59,30.52,0,0,3,0.00
2013-12-17,50.5,38.4,33.1,24.5,15.9,-99.9,50,43,22,30.55,30.39,2,0,5,0.00
2013-12-18,47.9,37.0,32.8,25.4,17.6,-99.9,74,47,28,30.40,30.24,2,0,7,0.00
2013-12-19,37.6,35.3,31.8,36.4,32.7,24.1,98,91,69,30.24,30.12,3,0,8,0.75
2013-12-20,36.8,34.4,32.2,36.8,34.3,32.0,100,100,99,30.52,30.16,1,0,3,0.81
2013-12-21,41.9,39.5,36.5,41.8,39.5,36.5,100,100,99,30.59,30.51,3,0,7,0.12
2013-12-22,42.8,41.2,39.8,42.6,41.2,39.8,100,100,100,30.51,30.34,1,0,5,0.15
2013-12-23,43.8,42.2,40.3,43.8,42.2,40.3,100,100,100,30.34,30.20,3,0,10,0.05
2013-12-24,46.0,42.0,40.2,42.9,41.5,39.7,100,98,80,30.20,29.90,9,1,18,0.61
2013-12-25,46.5,43.6,42.1,42.8,41.5,39.0,100,92,79,29.90,29.34,13,5,29,5.15
2013-12-26,43.9,40.4,37.0,41.7,37.7,-99.9,100,93,47,29.49,29.14,8,1,19,1.59
2013-12-27,48.6,39.5,32.4,30.8,27.7,21.3,80,64,38,29.97,29.49,10,0,18,0.00
2013-12-28,44.8,38.7,33.1,38.2,33.2,26.8,96,81,66,29.99,29.86,4,0,11,0.50
2013-12-29,42.9,36.5,31.2,39.8,35.0,27.3,100,95,84,30.20,29.88,4,0,8,0.36
2013-12-30,41.3,32.9,28.7,27.3,22.5,16.6,86,67,38,30.36,30.20,3,0,7,0.00
2013-12-31,40.8,32.1,27.8,22.9,20.5,17.5,76,63,40,30.28,30.13,3,0,7,0.00
2014-1-1,40.2,31.6,26.3,23.0,18.7,13.8,72,60,35,30.15,30.07,3,0,7,0.00
2014-1-2,33.7,31.9,30.0,31.7,28.2,22.0,98,87,62,30.09,29.99,2,0,7,0.49